Location: Girdwood
(60.9430°N, 149.1660°W)
Time: 14:03:40
(UTC-08:00)

Amateur Radio Satellites - All Passes

Search period start: 28 May 2015 13:33
Search period end: 29 May 2015 13:33
Location: Girdwood, 60.9430°N, 149.1660°W

Satellite Date Start Highest point End Downlink Frequencies (MHz)
Time Altitude Azimuth
AAUSAT CUBESAT 2 28 May 13:38:55 13:41:28 16° 314° (NW) 13:43:56 437.432
ESTCUBE 1 28 May 13:42:06 13:46:40 75° 105° (ESE) 13:51:13 437.505/2401.250
GOMX 1 28 May 13:48:36 13:51:39 15° 326° (NW) 13:54:33 467.674
UWE-3 28 May 13:52:25 13:56:06 25° 308° (NW) 13:59:40 435.000/436.395/437.385
DELFI C3 28 May 13:54:05 13:57:10 21° 307° (NW) 14:00:11 145.870
BRITE-PL 28 May 13:55:01 13:57:39 13° 332° (NNW) 14:00:10 437.365/2234.400
Gurwin Techsat 1B 28 May 13:56:05 14:00:58 39° 56° (NE) 14:05:54 435.225
FUNcube-1 28 May 13:57:43 14:01:24 26° 306° (NW) 14:04:57 145.935
SPROUT 28 May 13:57:53 14:02:00 38° 97° (E) 14:06:04 437.525
QB50P1 28 May 13:58:45 14:00:08 11° 281° (WNW) 14:01:21 145.935-145.965
POLYITAN 1 28 May 14:02:14 14:03:13 11° 282° (WNW) 14:04:00 437.675
AISAT 28 May 14:04:56 14:09:22 55° 296° (WNW) 14:13:46 437.250
HORYU 2 28 May 14:05:02 14:07:31 15° 41° (NE) 14:10:04 437.375
CINEMA 3 28 May 14:05:55 14:08:57 16° 319° (NW) 14:11:50 145.822/145.860
AO-7 28 May 14:10:44 14:18:08 38° 36° (NE) 14:25:37 29.400- 29.500
JAS-2 28 May 14:12:01 14:16:21 22° 43° (NE) 14:20:29 435.910
TISAT 1 28 May 14:14:21 14:18:25 40° 97° (E) 14:22:28 437.305
HUMSAT D 28 May 14:18:36 14:22:14 28° 304° (NW) 14:25:46 437.325/437.525
ITUPSAT 1 28 May 14:20:27 14:22:59 14° 81° (E) 14:25:41 437.325
Cosmos 2504 28 May 14:25:52 14:32:21 27° 318° (NW) 14:38:28 435.465 / 435.565
YUBILEINY 28 May 14:26:46 14:32:23 18° 359° (N) 14:37:58 435.215
BEESAT 28 May 14:26:46 14:29:40 16° 83° (E) 14:32:42 436.000
Oscar 19 28 May 14:29:14 14:34:25 66° 255° (WSW) 14:39:39 437.125/150
DANDE 28 May 14:33:31 14:41:29 71° 100° (E) 14:50:03 436.750
SWISSCUBE 28 May 14:35:17 14:38:41 19° 86° (E) 14:42:11 437.505
UKube-1 28 May 14:37:00 14:40:38 26° 308° (NW) 14:44:12 .
ZACube-1 28 May 14:39:35 14:42:20 16° 316° (NW) 14:44:57 437.345
DOVE 4 28 May 14:41:58 14:43:11 11° 334° (NNW) 14:44:17 437.250
CUBEBUG 2 28 May 14:46:09 14:48:19 13° 322° (NW) 14:50:22 437.445
ITAMSAT 1 28 May 14:47:06 14:52:16 77° 68° (ENE) 14:57:31 435.822/435.867
DX 1 28 May 14:48:33 14:51:57 22° 311° (NW) 14:55:18 434.975-435.025
Oscar 11 28 May 14:48:53 14:50:17 11° 323° (NW) 14:51:35 145.826/435.025
50 SAT 28 May 14:50:19 14:53:25 22° 306° (NW) 14:56:26 437.505
GONETS M04 28 May 14:51:56 15:00:48 82° 101° (E) 15:09:41
CUSAT 1 28 May 14:52:50 15:00:59 87° 288° (WNW) 15:09:17 437.405
RS-15 28 May 14:53:02 15:04:14 74° 1° (N) 15:16:00 29.354- 29.394
HO-68 28 May 14:56:03 15:01:15 22° 338° (NNW) 15:06:21 435.675
Cosmos 2499 28 May 15:01:52 15:08:10 29° 80° (E) 15:14:16 435.465 / 435.565
CUBEBUG 1 28 May 15:02:16 15:06:20 35° 302° (WNW) 15:10:23 437.445
VELOX 1 28 May 15:09:33 15:13:11 24° 309° (NW) 15:16:45 145.980
ESTCUBE 1 28 May 15:19:23 15:23:13 27° 307° (NW) 15:27:02 437.505/2401.250
SPROUT 28 May 15:34:00 15:38:10 44° 298° (WNW) 15:42:18 437.525
Gurwin Techsat 1B 28 May 15:35:34 15:40:50 60° 257° (WSW) 15:46:08 435.225
CUTE-I 28 May 15:38:20 15:40:24 12° 25° (NNE) 15:42:32 437.470
KKS-1 28 May 15:38:28 15:41:03 15° 83° (E) 15:43:45 437.445
HORYU 2 28 May 15:39:00 15:43:18 48° 62° (ENE) 15:47:38 437.375
AISAT 28 May 15:42:17 15:45:10 17° 317° (NW) 15:47:59 437.250
TISAT 1 28 May 15:50:10 15:54:15 42° 299° (WNW) 15:58:17 437.305
O/OREOS (USA 219) 28 May 15:52:26 15:54:36 14° 101° (E) 15:56:55 437.305
JAS-2 28 May 15:54:44 16:00:47 64° 65° (ENE) 16:06:15 435.910
ITUPSAT 1 28 May 15:57:10 16:01:56 62° 103° (ESE) 16:06:43 437.325
Cubesat XI-IV 28 May 15:58:30 16:01:13 14° 30° (NNE) 16:04:01 437.490
AO-7 28 May 16:01:51 16:10:10 80° 61° (ENE) 16:18:34 29.400- 29.500
BEESAT 28 May 16:03:40 16:08:28 69° 104° (ESE) 16:13:15 436.000
Oscar 19 28 May 16:11:31 16:14:52 17° 279° (W) 16:18:06 437.125/150
SWISSCUBE 28 May 16:12:30 16:17:20 83° 109° (ESE) 16:22:08 437.505
DANDE 28 May 16:17:20 16:25:17 50° 304° (NW) 16:33:35 436.750
Cosmos 2504 28 May 16:24:53 16:28:57 15° 348° (NNW) 16:32:50 435.465 / 435.565
YUBILEINY 28 May 16:26:22 16:33:10 25° 31° (NNE) 16:40:05 435.215
ITAMSAT 1 28 May 16:27:54 16:32:21 28° 270° (W) 16:36:47 435.822/435.867
CUSAT 1 28 May 16:37:07 16:44:44 39° 312° (NW) 16:52:12 437.405
STARS 28 May 16:37:26 16:41:16 28° 92° (E) 16:45:07 437.465
CUBEBUG 1 28 May 16:39:57 16:41:38 12° 323° (NW) 16:43:13 437.445
HO-68 28 May 16:42:14 16:46:43 18° 4° (N) 16:51:14 435.675
GONETS M04 28 May 16:50:19 16:58:38 42° 308° (NW) 17:06:54
Cosmos 2499 28 May 16:52:46 17:00:36 88° 104° (ESE) 17:07:56 435.465 / 435.565
RS-15 28 May 17:06:03 17:17:27 89° 208° (SSW) 17:29:23 29.354- 29.394
BRITE-PL 28 May 17:08:45 17:10:04 11° 21° (NNE) 17:11:29 437.365/2234.400
SPROUT 28 May 17:11:09 17:13:21 14° 319° (NW) 17:15:29 437.525
KKS-1 28 May 17:14:04 17:18:36 69° 105° (ESE) 17:23:05 437.445
CUTE-I 28 May 17:14:33 17:19:00 28° 48° (NE) 17:23:31 437.470
HORYU 2 28 May 17:15:54 17:20:05 37° 263° (W) 17:24:16 437.375
Gurwin Techsat 1B 28 May 17:18:50 17:22:02 16° 281° (W) 17:25:05 435.225
MOZHAYETS 4 28 May 17:20:46 17:23:34 16° 83° (E) 17:26:31
TISAT 1 28 May 17:27:05 17:29:06 13° 320° (NW) 17:31:03 437.305
O/OREOS (USA 219) 28 May 17:28:48 17:33:13 59° 121° (ESE) 17:37:39 437.305
Cubesat XI-IV 28 May 17:35:16 17:40:02 35° 53° (NE) 17:44:52 437.490
ITUPSAT 1 28 May 17:35:21 17:39:40 34° 304° (NW) 17:43:58 437.325
JAS-2 28 May 17:40:37 17:46:18 36° 266° (W) 17:51:26 435.910
BEESAT 28 May 17:41:51 17:46:04 31° 306° (NW) 17:50:14 436.000
SWISSCUBE 28 May 17:50:47 17:54:48 27° 309° (NW) 17:58:46 437.505
AO-7 28 May 17:56:05 18:03:49 40° 265° (W) 18:11:32 29.400- 29.500
DANDE 28 May 18:03:49 18:10:41 26° 330° (NNW) 18:17:27 436.750
STARS 28 May 18:13:39 18:18:05 63° 294° (WNW) 18:22:28 437.465
Cosmos 2504 28 May 18:21:40 18:26:05 16° 20° (NNE) 18:30:30 435.465 / 435.565
CUSAT 1 28 May 18:23:49 18:29:53 21° 338° (NNW) 18:35:38 437.405
YUBILEINY 28 May 18:23:56 18:32:27 53° 60° (ENE) 18:40:57 435.215
HO-68 28 May 18:26:44 18:32:22 26° 31° (NNE) 18:38:02 435.675
GOMX 1 28 May 18:36:10 18:39:35 17° 38° (NE) 18:43:06 467.674
BEESAT 3 28 May 18:40:51 18:42:56 14° 118° (ESE) 18:45:07 437.485
BRITE-PL 28 May 18:42:38 18:46:47 23° 44° (NE) 18:51:07 437.365/2234.400
Cosmos 2491 28 May 18:44:06 18:50:29 24° 70° (ENE) 18:57:05 435.465 / 435.565
Cosmos 2499 28 May 18:47:47 18:54:42 34° 309° (NW) 19:01:12 435.465 / 435.565
KKS-1 28 May 18:51:03 18:54:57 29° 306° (NW) 18:58:48 437.445
GONETS M04 28 May 18:52:01 18:58:31 21° 338° (NNW) 19:04:54
CINEMA 3 28 May 18:52:57 18:54:20 11° 31° (NNE) 18:55:49 145.822/145.860
CUTE-I 28 May 18:53:15 18:58:36 89° 79° (ENE) 19:04:01 437.470
MOZHAYETS 4 28 May 18:57:05 19:01:40 73° 104° (ESE) 19:06:15
CUBESAT XI-V 28 May 19:04:48 19:07:49 17° 83° (E) 19:10:57 437.345
O/OREOS (USA 219) 28 May 19:08:35 19:12:52 41° 324° (NW) 19:17:09 437.305
CANX-2 28 May 19:11:30 19:13:43 14° 44° (NE) 19:16:01 2200.000
ITUPSAT 1 28 May 19:14:21 19:16:24 13° 327° (NNW) 19:18:22 437.325
Cubesat XI-IV 28 May 19:14:35 19:19:54 69° 254° (WSW) 19:25:17 437.490
CUTE 1.7 + AOD 2 28 May 19:14:47 19:16:58 14° 43° (NE) 19:19:14 437.475
RS-15 28 May 19:18:27 19:29:10 48° 239° (WSW) 19:40:14 29.354- 29.394
BEESAT 28 May 19:20:58 19:22:41 12° 329° (NNW) 19:24:17 436.000
DOVE 4 28 May 19:26:15 19:30:14 22° 46° (NE) 19:34:19 437.250
SWISSCUBE 28 May 19:30:19 19:31:19 11° 331° (NNW) 19:32:12 437.505
BEESAT 2 28 May 19:30:42 19:34:06 25° 126° (SE) 19:37:33 435.950
CUBEBUG 2 28 May 19:31:06 19:32:14 11° 34° (NE) 19:33:29 437.445
SEEDS 28 May 19:33:44 19:36:15 16° 46° (NE) 19:38:52 437.485
STRAND 1 28 May 19:33:47 19:36:41 15° 80° (E) 19:39:44 437.568
AIST 2 28 May 19:35:19 19:37:19 13° 116° (ESE) 19:39:28 435.215
PRISM 28 May 19:37:03 19:39:03 13° 83° (E) 19:41:11 437.425
COMPASS 1 28 May 19:43:40 19:46:11 16° 46° (NE) 19:48:46 437.405
STARS 28 May 19:50:49 19:53:51 18° 315° (NW) 19:56:49 437.465
DANDE 28 May 19:51:22 19:57:06 19° 357° (N) 20:02:37 436.750
AAUSAT CUBESAT 2 28 May 19:53:53 19:56:31 17° 47° (NE) 19:59:13 437.432
AO-7 28 May 19:56:21 19:59:34 12° 293° (WNW) 20:02:21 29.400- 29.500
DELFI C3 28 May 20:09:05 20:10:19 11° 41° (NE) 20:11:38 145.870
CUSAT 1 28 May 20:10:36 20:15:48 18° 4° (N) 20:20:41 437.405
GOMX 1 28 May 20:11:28 20:16:36 46° 60° (ENE) 20:21:52 467.674
HO-68 28 May 20:11:58 20:18:56 56° 55° (NE) 20:25:55 435.675
UWE-3 28 May 20:12:16 20:14:47 15° 42° (NE) 20:17:23 435.000/436.395/437.385
Cosmos 2504 28 May 20:15:41 20:22:16 34° 50° (NE) 20:28:44 435.465 / 435.565
BEESAT 3 28 May 20:16:09 20:20:08 51° 138° (SE) 20:24:11 437.485
FUNcube-1 28 May 20:17:11 20:19:19 13° 41° (NE) 20:21:34 145.935
BRITE-PL 28 May 20:19:05 20:24:26 65° 66° (ENE) 20:30:06 437.365/2234.400
YUBILEINY 28 May 20:21:05 20:29:38 61° 267° (W) 20:38:05 435.215
CINEMA 3 28 May 20:25:55 20:30:11 29° 53° (NE) 20:34:27 145.822/145.860
KKS-1 28 May 20:29:34 20:30:22 10° 328° (NNW) 20:31:04 437.445
MOZHAYETS 4 28 May 20:34:42 20:38:36 28° 306° (NW) 20:42:28
CUTE-I 28 May 20:35:07 20:39:26 24° 273° (W) 20:43:43 437.470
HUMSAT D 28 May 20:36:55 20:37:59 11° 38° (NE) 20:39:08 437.325/437.525
Cosmos 2491 28 May 20:37:11 20:45:52 67° 95° (E) 20:54:38 435.465 / 435.565
CUBESAT XI-V 28 May 20:41:24 20:46:08 74° 105° (ESE) 20:50:52 437.345
CANX-2 28 May 20:44:44 20:48:51 50° 65° (ENE) 20:52:59 2200.000
Cosmos 2499 28 May 20:46:04 20:50:32 16° 338° (NNW) 20:54:48 435.465 / 435.565
CUTE 1.7 + AOD 2 28 May 20:47:58 20:52:05 49° 64° (ENE) 20:56:12 437.475
O/OREOS (USA 219) 28 May 20:49:51 20:53:22 22° 348° (NNW) 20:56:54 437.305
GONETS M04 28 May 20:53:35 20:59:31 19° 11° (N) 21:05:29
UKube-1 28 May 20:55:42 20:58:06 15° 41° (NE) 21:00:35 .
ZACube-1 28 May 20:56:55 21:00:19 21° 50° (NE) 21:03:46 437.345
Cubesat XI-IV 28 May 20:57:26 21:01:06 18° 278° (W) 21:04:37 437.490
AIST 1 28 May 21:00:52 21:04:20 25° 87° (E) 21:07:55
DOVE 4 28 May 21:02:01 21:07:15 68° 68° (ENE) 21:12:35 437.250
CUBEBUG 2 28 May 21:03:36 21:07:43 30° 56° (NE) 21:11:49 437.445
Oscar 11 28 May 21:04:03 21:07:48 29° 56° (ENE) 21:11:35 145.826/435.025
50 SAT 28 May 21:04:54 21:05:04 10° 39° (NE) 21:05:20 437.505
DX 1 28 May 21:06:55 21:09:49 18° 45° (NE) 21:12:46 434.975-435.025
SEEDS 28 May 21:07:12 21:11:21 59° 67° (ENE) 21:15:31 437.485
BEESAT 2 28 May 21:07:37 21:11:47 83° 146° (SE) 21:15:58 435.950
AIST 2 28 May 21:10:56 21:15:04 48° 137° (SE) 21:19:14 435.215
PRISM 28 May 21:11:13 21:15:22 66° 104° (ESE) 21:19:32 437.425
STRAND 1 28 May 21:11:55 21:17:03 61° 103° (ESE) 21:22:10 437.568
COMPASS 1 28 May 21:17:03 21:21:11 60° 68° (ENE) 21:25:19 437.405
CUBEBUG 1 28 May 21:23:27 21:24:43 11° 35° (NE) 21:26:05 437.445
M-CUBED/EXP-1 PRIME 28 May 21:24:29 21:27:19 25° 102° (ESE) 21:30:08 437.505
AAUSAT CUBESAT 2 28 May 21:27:22 21:31:29 65° 69° (ENE) 21:35:38 437.432
VELOX 1 28 May 21:29:25 21:32:12 17° 43° (NE) 21:35:03 145.980
AUBIESAT-1 28 May 21:30:36 21:33:26 25° 102° (ESE) 21:36:16 437.475
RS-15 28 May 21:31:56 21:38:47 17° 265° (W) 21:45:11 29.354- 29.394
DANDE 28 May 21:37:11 21:43:38 23° 24° (NNE) 21:49:38 436.750
DELFI C3 28 May 21:40:46 21:44:31 39° 62° (ENE) 21:48:18 145.870
ESTCUBE 1 28 May 21:41:00 21:43:28 15° 41° (NE) 21:46:02 437.505/2401.250
UWE-3 28 May 21:45:57 21:50:26 47° 63° (ENE) 21:54:52 435.000/436.395/437.385
GOMX 1 28 May 21:49:28 21:54:42 52° 262° (W) 22:00:07 467.674
FUNcube-1 28 May 21:50:25 21:54:43 42° 62° (ENE) 21:58:59 145.935
BEESAT 3 28 May 21:54:01 21:58:08 63° 340° (NNW) 22:02:15 437.485
CUSAT 1 28 May 21:55:08 22:01:31 25° 32° (NNE) 22:07:13 437.405
BRITE-PL 28 May 21:58:21 22:03:20 36° 269° (W) 22:08:32 437.365/2234.400
HO-68 28 May 21:59:45 22:06:49 55° 258° (WSW) 22:13:53 435.675
AISAT 28 May 22:00:42 22:04:18 24° 51° (NE) 22:07:57 437.250
CINEMA 3 28 May 22:01:55 22:06:59 81° 254° (WSW) 22:12:03 145.822/145.860
HUMSAT D 28 May 22:08:49 22:12:42 34° 59° (ENE) 22:16:35 437.325/437.525
Cosmos 2504 28 May 22:09:14 22:16:36 86° 258° (WSW) 22:23:48 435.465 / 435.565
YUBILEINY 28 May 22:18:42 22:24:50 21° 292° (WNW) 22:30:40 435.215
CUBESAT XI-V 28 May 22:19:14 22:23:15 29° 306° (NW) 22:27:16 437.345
CANX-2 28 May 22:21:05 22:24:58 33° 266° (W) 22:28:50 2200.000
CUTE 1.7 + AOD 2 28 May 22:24:17 22:28:10 33° 266° (W) 22:32:03 437.475
UKube-1 28 May 22:29:13 22:33:24 49° 63° (ENE) 22:37:38 .
O/OREOS (USA 219) 28 May 22:30:39 22:34:12 22° 14° (NNE) 22:37:46 437.305
ZACube-1 28 May 22:31:34 22:36:09 80° 71° (ENE) 22:40:42 437.345
Cosmos 2491 28 May 22:34:42 22:43:16 50° 302° (WNW) 22:51:51 435.465 / 435.565
50 SAT 28 May 22:35:11 22:38:48 34° 60° (ENE) 22:42:25 437.505
AIST 1 28 May 22:37:25 22:41:42 64° 290° (WNW) 22:46:01
CUBEBUG 2 28 May 22:39:21 22:44:08 70° 256° (WSW) 22:48:51 437.445
Oscar 11 28 May 22:39:28 22:43:46 62° 257° (WSW) 22:48:06 145.826/435.025
DOVE 4 28 May 22:40:40 22:45:25 33° 269° (W) 22:50:12 437.250
DX 1 28 May 22:41:02 22:45:22 62° 66° (ENE) 22:49:45 434.975-435.025
SEEDS 28 May 22:43:50 22:47:29 27° 268° (W) 22:51:06 437.485
Cosmos 2499 28 May 22:43:51 22:47:24 14° 10° (N) 22:50:56 435.465 / 435.565
BEESAT 2 28 May 22:46:02 22:50:07 51° 350° (N) 22:54:13 435.950
PRISM 28 May 22:47:02 22:50:35 27° 305° (NW) 22:54:05 437.425
AIST 2 28 May 22:49:20 22:53:38 67° 339° (NNW) 22:57:55 435.215
STRAND 1 28 May 22:51:23 22:56:07 37° 305° (NW) 23:00:49 437.568
GONETS M04 28 May 22:52:12 22:59:55 32° 43° (NE) 23:07:39
COMPASS 1 28 May 22:53:37 22:57:12 26° 269° (W) 23:00:45 437.405
CUBEBUG 1 28 May 22:56:02 22:59:57 33° 57° (ENE) 23:03:57 437.445
M-CUBED/EXP-1 PRIME 28 May 22:59:09 23:02:27 47° 303° (WNW) 23:05:38 437.505
VELOX 1 28 May 23:03:37 23:07:59 56° 65° (ENE) 23:12:24 145.980
AAUSAT CUBESAT 2 28 May 23:04:01 23:07:29 24° 270° (W) 23:10:55 437.432
AUBIESAT-1 28 May 23:05:13 23:08:29 46° 304° (WNW) 23:11:40 437.475
ESTCUBE 1 28 May 23:15:09 23:19:28 48° 63° (ENE) 23:23:50 437.505/2401.250
DELFI C3 28 May 23:15:51 23:19:40 39° 263° (W) 23:23:28 145.870
DANDE 28 May 23:21:19 23:29:17 44° 51° (NE) 23:36:08 436.750
UWE-3 28 May 23:22:38 23:27:04 40° 263° (W) 23:31:26 435.000/436.395/437.385
FUNcube-1 28 May 23:26:41 23:31:05 44° 262° (W) 23:35:25 145.935
ANTELSAT 28 May 23:26:45 23:29:35 17° 84° (E) 23:32:29 437.575/2403.000
SPROUT 28 May 23:26:54 23:30:24 25° 53° (NE) 23:33:58 437.525
GOMX 1 28 May 23:31:23 23:34:13 14° 285° (WNW) 23:36:54 467.674
BEESAT 3 28 May 23:32:32 23:36:34 48° 4° (N) 23:40:35 437.485
AISAT 28 May 23:35:57 23:40:27 86° 247° (WSW) 23:45:01 437.250
CUSAT 1 28 May 23:38:24 23:46:10 54° 59° (ENE) 23:52:30 437.405
CINEMA 3 28 May 23:41:11 23:44:58 20° 276° (W) 23:48:38 145.822/145.860
TISAT 1 28 May 23:41:31 23:45:01 25° 53° (NE) 23:48:34 437.305
HUMSAT D 28 May 23:44:07 23:48:20 51° 260° (W) 23:52:33 437.325/437.525
HO-68 28 May 23:51:44 23:56:23 17° 283° (WNW) 00:00:47 435.675
QB50P1 28 May 23:54:42 23:57:12 15° 83° (E) 23:59:50 145.935-145.965
POLYITAN 1 28 May 23:57:50 00:00:32 16° 84° (E) 00:03:19 437.675
TIGRISAT 28 May 23:58:02 00:01:49 27° 91° (E) 00:05:33 435.000
CUBESAT XI-V 28 May 23:58:31 23:59:26 10° 328° (NNW) 00:00:12 437.345
ITUPSAT 1 29 May 00:01:19 00:04:09 16° 40° (NE) 00:07:04 437.325
Cosmos 2504 29 May 00:03:12 00:09:07 27° 282° (WNW) 00:14:48 435.465 / 435.565
UKube-1 29 May 00:05:42 00:09:43 35° 264° (W) 00:13:44 .
BEESAT 29 May 00:07:17 00:10:18 17° 41° (NE) 00:13:23 436.000
ZACube-1 29 May 00:09:22 00:13:03 23° 272° (W) 00:16:38 437.345
50 SAT 29 May 00:09:36 00:13:27 45° 260° (W) 00:17:17 437.505
O/OREOS (USA 219) 29 May 00:10:21 00:14:40 44° 38° (NE) 00:18:58 437.305
SWISSCUBE 29 May 00:15:43 00:19:02 19° 44° (NE) 00:22:26 437.505
AIST 1 29 May 00:17:31 00:20:17 16° 312° (NW) 00:23:00
DX 1 29 May 00:18:09 00:21:58 28° 267° (W) 00:25:46 434.975-435.025
CUBEBUG 2 29 May 00:18:39 00:21:42 16° 278° (W) 00:24:36 437.445
Oscar 11 29 May 00:18:45 00:20:55 13° 279° (W) 00:22:56 145.826/435.025
UNISAT 6 29 May 00:19:20 00:23:31 38° 96° (E) 00:27:36 437.425
BEESAT 2 29 May 00:24:36 00:28:42 55° 13° (NNE) 00:32:47 435.950
NANOSAT C BR1 29 May 00:24:37 00:28:09 24° 90° (E) 00:31:43 145.865
AIST 2 29 May 00:28:27 00:32:40 49° 2° (N) 00:36:50 435.215
STRAND 1 29 May 00:31:25 00:34:09 14° 327° (NNW) 00:36:49 437.568
CUBEBUG 1 29 May 00:31:50 00:36:10 56° 258° (WSW) 00:40:33 437.445
QB50P2 29 May 00:34:14 00:38:01 29° 93° (E) 00:41:48 145.880/145.840
M-CUBED/EXP-1 PRIME 29 May 00:35:03 00:36:39 13° 325° (NW) 00:38:09 437.505
Cosmos 2491 29 May 00:35:51 00:42:46 24° 332° (NNW) 00:49:35 435.465 / 435.565
Cosmos 2499 29 May 00:38:01 00:43:45 25° 41° (NE) 00:49:29 435.465 / 435.565
VELOX 1 29 May 00:40:48 00:44:49 32° 266° (W) 00:48:50 145.980
AUBIESAT-1 29 May 00:41:03 00:42:36 13° 325° (NW) 00:44:04 437.475
POPSAT HIP 1 29 May 00:45:52 00:49:50 34° 95° (E) 00:53:47 437.405
DUCHIFAT 1 29 May 00:45:54 00:49:51 34° 95° (E) 00:53:46 145.980
GONETS M04 29 May 00:49:34 00:58:27 76° 71° (ENE) 01:07:14
ESTCUBE 1 29 May 00:52:17 00:56:29 37° 264° (W) 01:00:42 437.505/2401.250
BUGSAT 1 29 May 00:58:43 01:02:38 33° 95° (E) 01:06:32 437.445
SPROUT 29 May 01:01:45 01:06:06 81° 253° (WSW) 01:10:30 437.525
ANTELSAT 29 May 01:02:42 01:07:12 79° 107° (ESE) 01:11:33 437.575/2403.000
DANDE 29 May 01:04:55 01:13:19 78° 258° (WSW) 01:20:11 436.750
BEESAT 3 29 May 01:10:46 01:14:55 78° 26° (NNE) 01:19:02 437.485
KKS-1 29 May 01:11:59 01:14:22 14° 40° (NE) 01:16:50 437.445
AISAT 29 May 01:14:29 01:17:44 19° 274° (W) 01:20:56 437.250
TISAT 1 29 May 01:16:09 01:20:27 77° 255° (WSW) 01:24:46 437.305
ISS 29 May 01:20:38 01:20:51 10° 156° (SSE) 01:21:08 145.825
CUSAT 1 29 May 01:21:27 01:29:02 55° 265° (W) 01:35:06 437.405
HUMSAT D 29 May 01:23:58 01:25:10 11° 282° (WNW) 01:26:11 437.325/437.525
QB50P1 29 May 01:29:34 01:33:54 73° 105° (ESE) 01:38:11 145.935-145.965
POLYITAN 1 29 May 01:32:52 01:37:13 78° 106° (ESE) 01:41:31 437.675
TIGRISAT 29 May 01:34:32 01:38:59 64° 293° (WNW) 01:43:17 435.000
ITUPSAT 1 29 May 01:36:34 01:41:08 48° 61° (ENE) 01:45:45 437.325
BEESAT 29 May 01:42:41 01:47:19 53° 62° (ENE) 01:51:59 436.000
O/OREOS (USA 219) 29 May 01:49:51 01:54:14 52° 241° (WSW) 01:58:35 437.305
SWISSCUBE 29 May 01:51:28 01:56:11 64° 66° (ENE) 02:00:56 437.505
UNISAT 6 29 May 01:56:08 02:00:25 45° 298° (WNW) 02:04:34 437.425
NANOSAT C BR1 29 May 02:00:07 02:04:25 68° 292° (WNW) 02:08:40 145.865
BEESAT 2 29 May 02:02:49 02:06:58 70° 216° (SW) 02:11:04 435.950
PCSat 29 May 02:05:27 02:10:13 33° 121° (ESE) 02:15:04 145.827
AIST 2 29 May 02:07:20 02:11:39 75° 26° (NNE) 02:15:54 435.215
STARS 29 May 02:09:05 02:12:26 22° 49° (NE) 02:15:52 437.465
QB50P2 29 May 02:09:57 02:14:12 57° 294° (WNW) 02:18:25 145.880/145.840
CUBEBUG 1 29 May 02:11:42 02:13:35 12° 281° (W) 02:15:20 437.445
DUCHIFAT 1 29 May 02:21:40 02:25:50 49° 296° (WNW) 02:29:57 145.980
POPSAT HIP 1 29 May 02:21:41 02:25:52 48° 297° (WNW) 02:30:00 437.405
Oscar 19 29 May 02:30:39 02:34:43 23° 87° (E) 02:38:51 437.125/150
Cosmos 2499 29 May 02:31:20 02:38:28 67° 69° (ENE) 02:45:32 435.465 / 435.565
BUGSAT 1 29 May 02:34:07 02:38:18 50° 296° (WNW) 02:42:27 437.445
Cosmos 2491 29 May 02:37:53 02:43:42 18° 4° (N) 02:49:31 435.465 / 435.565
ANTELSAT 29 May 02:39:55 02:43:36 25° 308° (NW) 02:47:10 437.575/2403.000
SPROUT 29 May 02:40:01 02:42:56 17° 276° (W) 02:45:47 437.525
KKS-1 29 May 02:45:48 02:50:05 45° 61° (ENE) 02:54:25 437.445
GONETS M04 29 May 02:46:47 02:54:52 42° 276° (W) 03:02:47
DANDE 29 May 02:48:47 02:55:26 28° 282° (WNW) 03:01:05 436.750
BEESAT 3 29 May 02:48:55 02:52:42 35° 228° (SW) 02:56:25 437.485
ITAMSAT 1 29 May 02:50:44 02:53:14 14° 78° (ENE) 02:55:55 435.822/435.867
ISS 29 May 02:54:14 02:56:21 16° 175° (S) 02:58:29 145.825
TISAT 1 29 May 02:54:17 02:57:00 16° 276° (W) 02:59:37 437.305
MOZHAYETS 4 29 May 02:57:45 03:00:10 15° 41° (NE) 03:02:41
CUSAT 1 29 May 03:05:13 03:10:03 18° 290° (WNW) 03:14:11 437.405
QB50P1 29 May 03:05:49 03:09:26 26° 306° (NW) 03:12:59 145.935-145.965
POLYITAN 1 29 May 03:09:13 03:12:46 25° 307° (NW) 03:16:15 437.675
TIGRISAT 29 May 03:12:00 03:15:01 18° 315° (NW) 03:17:56 435.000
ITUPSAT 1 29 May 03:14:40 03:19:11 40° 263° (W) 03:23:42 437.325
BEESAT 29 May 03:20:57 03:25:23 36° 265° (W) 03:29:48 436.000
SWISSCUBE 29 May 03:30:12 03:34:26 30° 267° (W) 03:38:37 437.505
O/OREOS (USA 219) 29 May 03:31:00 03:32:45 12° 261° (W) 03:34:21 437.305
UNISAT 6 29 May 03:33:55 03:36:16 14° 320° (NW) 03:38:31 437.425
NANOSAT C BR1 29 May 03:36:40 03:39:38 18° 313° (NW) 03:42:31 145.865
Gurwin Techsat 1B 29 May 03:41:18 03:45:50 28° 90° (E) 03:50:25 435.225
BEESAT 2 29 May 03:41:25 03:44:30 20° 237° (WSW) 03:47:29 435.950
STARS 29 May 03:43:54 03:48:22 82° 70° (ENE) 03:52:52 437.465
AIST 2 29 May 03:46:04 03:50:03 38° 227° (SW) 03:53:58 435.215
QB50P2 29 May 03:46:41 03:49:22 16° 315° (NW) 03:51:57 145.880/145.840
PCSat 29 May 03:47:48 03:53:16 87° 321° (NW) 03:58:46 145.827
AO-7 29 May 03:53:02 03:56:57 14° 70° (ENE) 04:01:17 29.400- 29.500
DUCHIFAT 1 29 May 03:58:27 04:00:49 14° 317° (NW) 04:03:05 145.980
POPSAT HIP 1 29 May 03:58:33 04:00:54 14° 318° (NW) 04:03:10 437.405
Oscar 19 29 May 04:09:36 04:14:50 89° 264° (W) 04:20:01 437.125/150
BUGSAT 1 29 May 04:10:32 04:12:58 15° 317° (NW) 04:15:19 437.445
KKS-1 29 May 04:22:34 04:26:49 40° 262° (W) 04:31:06 437.445
Cosmos 2499 29 May 04:24:50 04:31:21 40° 274° (W) 04:37:46 435.465 / 435.565
ITAMSAT 1 29 May 04:28:53 04:34:02 54° 101° (E) 04:39:11 435.822/435.867
ISS 29 May 04:30:08 04:31:55 14° 195° (SSW) 04:33:41 145.825
MOZHAYETS 4 29 May 04:32:07 04:36:29 46° 62° (ENE) 04:40:53
Cosmos 2491 29 May 04:37:04 04:44:23 28° 36° (NE) 04:51:47 435.465 / 435.565
JAS-2 29 May 04:38:03 04:41:46 20° 84° (E) 04:45:35 435.910
CUBESAT XI-V 29 May 04:43:02 04:45:37 15° 41° (NE) 04:48:19 437.345
GONETS M04 29 May 04:45:12 04:49:18 14° 302° (WNW) 04:53:03
SO-50 29 May 04:48:24 04:52:47 37° 130° (SE) 04:57:19 436.795
HORYU 2 29 May 04:56:44 05:00:17 23° 89° (E) 05:03:52 437.375
PRISM 29 May 05:04:05 05:05:24 11° 38° (NE) 05:06:49 437.425
M-CUBED/EXP-1 PRIME 29 May 05:15:14 05:16:48 12° 35° (NE) 05:18:22 437.505
AUBIESAT-1 29 May 05:21:03 05:22:33 12° 35° (NE) 05:24:05 437.475
Gurwin Techsat 1B 29 May 05:21:03 05:26:25 78° 292° (WNW) 05:31:45 435.225
STARS 29 May 05:21:53 05:25:23 22° 271° (W) 05:28:51 437.465
STRAND 1 29 May 05:22:20 05:25:49 19° 41° (NE) 05:29:24 437.568
PCSat 29 May 05:31:55 05:37:12 48° 347° (NNW) 05:42:30 145.827
AO-7 29 May 05:44:31 05:52:27 45° 97° (E) 06:00:26 29.400- 29.500
YUBILEINY 29 May 05:48:59 05:52:04 13° 56° (NE) 05:55:32 435.215
Oscar 19 29 May 05:49:23 05:53:43 27° 311° (NW) 05:57:59 437.125/150
ITAMSAT 1 29 May 06:08:36 06:13:30 42° 303° (WNW) 06:18:24 435.822/435.867
MOZHAYETS 4 29 May 06:09:31 06:13:50 40° 264° (W) 06:18:09
CUBESAT XI-V 29 May 06:17:44 06:22:10 47° 62° (ENE) 06:26:40 437.345
Cosmos 2499 29 May 06:20:28 06:22:31 11° 298° (WNW) 06:24:14 435.465 / 435.565
JAS-2 29 May 06:22:37 06:27:54 82° 107° (ESE) 06:33:09 435.910
SO-50 29 May 06:28:11 06:33:04 86° 333° (NNW) 06:38:03 436.795
HORYU 2 29 May 06:32:59 06:37:27 76° 291° (WNW) 06:41:53 437.375
Cosmos 2491 29 May 06:34:35 06:43:24 62° 65° (ENE) 06:52:09 435.465 / 435.565
PRISM 29 May 06:36:07 06:39:53 37° 60° (ENE) 06:43:43 437.425
M-CUBED/EXP-1 PRIME 29 May 06:47:20 06:50:58 41° 55° (NE) 06:54:23 437.505
AUBIESAT-1 29 May 06:53:04 06:56:40 40° 55° (NE) 07:00:03 437.475
AIST 1 29 May 06:56:26 07:00:01 24° 56° (NE) 07:03:41
STRAND 1 29 May 06:59:12 07:04:11 56° 63° (ENE) 07:09:14 437.568
CUTE-I 29 May 07:00:32 07:04:05 18° 82° (E) 07:07:47 437.470
Gurwin Techsat 1B 29 May 07:01:31 07:05:48 25° 314° (NW) 07:10:01 435.225
PCSat 29 May 07:16:13 07:21:30 48° 12° (NNE) 07:26:47 145.827
Cubesat XI-IV 29 May 07:21:35 07:25:53 24° 87° (E) 07:30:15 437.490
Oscar 19 29 May 07:29:52 07:31:37 12° 334° (NNW) 07:33:16 437.125/150
AO-7 29 May 07:37:33 07:45:54 74° 302° (WNW) 07:54:15 29.400- 29.500
YUBILEINY 29 May 07:38:38 07:46:24 39° 82° (E) 07:54:15 435.215
ITAMSAT 1 29 May 07:48:49 07:51:56 16° 325° (NW) 07:54:58 435.822/435.867
RS-15 29 May 07:51:15 07:54:46 12° 89° (E) 07:59:01 29.354- 29.394
CUBESAT XI-V 29 May 07:55:23 07:59:45 39° 264° (W) 08:04:08 437.345
JAS-2 29 May 08:08:12 08:12:41 28° 311° (NW) 08:17:02 435.910
SO-50 29 May 08:09:09 08:14:00 57° 357° (N) 08:18:56 436.795
HORYU 2 29 May 08:10:13 08:13:32 21° 313° (NW) 08:16:46 437.375
PRISM 29 May 08:11:24 08:15:19 43° 260° (W) 08:19:18 437.425
BRITE-PL 29 May 08:14:49 08:17:35 14° 74° (ENE) 08:20:31 437.365/2234.400
M-CUBED/EXP-1 PRIME 29 May 08:22:16 08:25:55 36° 253° (WSW) 08:29:19 437.505
AUBIESAT-1 29 May 08:27:55 08:31:32 36° 254° (WSW) 08:34:54 437.475
Cosmos 2491 29 May 08:31:48 08:40:17 52° 271° (W) 08:48:39 435.465 / 435.565
AIST 1 29 May 08:33:48 08:38:12 76° 259° (WSW) 08:42:35
STRAND 1 29 May 08:38:53 08:43:39 38° 264° (W) 08:48:26 437.568
CUTE-I 29 May 08:39:51 08:45:14 69° 104° (ESE) 08:50:37 437.470
Gurwin Techsat 1B 29 May 08:42:37 08:44:12 11° 337° (NNW) 08:45:42 435.225
DOVE 4 29 May 08:52:59 08:54:35 11° 73° (ENE) 08:56:23 437.250
PCSat 29 May 08:59:57 09:05:27 86° 41° (NE) 09:10:54 145.827
ANTELSAT 29 May 09:00:47 09:03:25 15° 42° (NE) 09:06:06 437.575/2403.000
Cubesat XI-IV 29 May 09:01:19 09:06:45 90° 291° (WNW) 09:12:09 437.490
Cosmos 2504 29 May 09:09:43 09:14:32 18° 70° (ENE) 09:19:25 435.465 / 435.565
HO-68 29 May 09:16:12 09:21:21 21° 81° (E) 09:26:41 435.675
QB50P1 29 May 09:23:50 09:25:41 13° 40° (NE) 09:27:37 145.935-145.965
POLYITAN 1 29 May 09:27:06 09:29:09 13° 41° (NE) 09:31:17 437.675
AO-7 29 May 09:30:26 09:37:48 36° 327° (NNW) 09:45:07 29.400- 29.500
TIGRISAT 29 May 09:31:13 09:34:40 21° 49° (NE) 09:38:07 435.000
YUBILEINY 29 May 09:33:53 09:42:41 80° 287° (WNW) 09:51:29 435.215
GOMX 1 29 May 09:41:04 09:45:56 32° 90° (E) 09:50:39 467.674
CINEMA 3 29 May 09:47:54 09:50:35 15° 79° (E) 09:53:22 145.822/145.860
SO-50 29 May 09:50:04 09:55:02 71° 20° (NNE) 10:00:01 436.795
BRITE-PL 29 May 09:51:59 09:57:34 50° 97° (E) 10:02:58 437.365/2234.400
UNISAT 6 29 May 09:52:14 09:56:08 28° 54° (NE) 10:00:02 437.425
NANOSAT C BR1 29 May 09:52:50 09:55:41 18° 46° (NE) 09:58:34 145.865
RS-15 29 May 09:54:02 10:03:45 40° 115° (ESE) 10:13:56 29.354- 29.394
JAS-2 29 May 09:54:21 09:56:18 12° 336° (NNW) 09:58:07 435.910
CANX-2 29 May 09:55:50 09:59:20 25° 90° (E) 10:02:51 2200.000
CUTE 1.7 + AOD 2 29 May 09:58:59 10:02:27 24° 90° (E) 10:05:57 437.475
QB50P2 29 May 10:02:31 10:05:39 20° 49° (NE) 10:08:50 145.880/145.840
AIST 1 29 May 10:12:32 10:15:12 16° 279° (W) 10:17:45
DUCHIFAT 1 29 May 10:13:29 10:16:47 22° 51° (NE) 10:20:09 145.980
POPSAT HIP 1 29 May 10:13:46 10:17:08 23° 51° (NE) 10:20:33 437.405
SEEDS 29 May 10:17:13 10:20:52 29° 92° (E) 10:24:33 437.485
Oscar 11 29 May 10:17:35 10:19:51 14° 82° (E) 10:22:14 145.826/435.025
CUTE-I 29 May 10:20:14 10:25:05 35° 307° (NW) 10:29:55 437.470
CUBEBUG 2 29 May 10:21:26 10:23:58 15° 81° (E) 10:26:36 437.445
BUGSAT 1 29 May 10:24:24 10:27:34 21° 50° (NE) 10:30:49 437.445
COMPASS 1 29 May 10:26:03 10:29:42 28° 93° (E) 10:33:21 437.405
DOVE 4 29 May 10:28:47 10:33:49 46° 96° (E) 10:38:38 437.250
Cosmos 2491 29 May 10:29:41 10:35:10 18° 296° (WNW) 10:40:23 435.465 / 435.565
ANTELSAT 29 May 10:34:54 10:39:22 49° 63° (ENE) 10:43:47 437.575/2403.000
AAUSAT CUBESAT 2 29 May 10:35:49 10:39:31 30° 93° (E) 10:43:12 437.432
Cubesat XI-IV 29 May 10:41:50 10:46:23 28° 312° (NW) 10:50:52 437.490
PCSat 29 May 10:43:38 10:48:29 33° 239° (WSW) 10:53:16 145.827
Oscar 19 29 May 10:44:37 10:46:00 11° 24° (NNE) 10:47:30 437.125/150
DELFI C3 29 May 10:45:17 10:47:55 17° 86° (E) 10:50:37 145.870
QB50P1 29 May 10:56:34 11:00:37 41° 61° (ENE) 11:04:41 145.935-145.965
Cosmos 2504 29 May 10:58:45 11:06:30 57° 93° (E) 11:13:49 435.465 / 435.565
POLYITAN 1 29 May 11:00:03 11:04:09 43° 62° (ENE) 11:08:17 437.675
UWE-3 29 May 11:02:24 11:06:02 24° 89° (E) 11:09:37 435.000/436.395/437.385
HO-68 29 May 11:03:27 11:10:37 66° 105° (ESE) 11:17:45 435.675
FUNcube-1 29 May 11:05:08 11:08:28 21° 87° (E) 11:11:48 145.935
TIGRISAT 29 May 11:06:12 11:10:52 78° 70° (ENE) 11:15:28 435.000
AISAT 29 May 11:18:48 11:19:34 10° 77° (ENE) 11:20:32 437.250
HUMSAT D 29 May 11:18:49 11:21:17 15° 83° (E) 11:23:51 437.325/437.525
GOMX 1 29 May 11:19:02 11:24:31 70° 293° (WNW) 11:29:45 467.674
CUSAT 1 29 May 11:19:29 11:21:48 12° 62° (ENE) 11:24:30 437.405
AO-7 29 May 11:22:15 11:28:37 25° 354° (N) 11:34:57 29.400- 29.500
CINEMA 3 29 May 11:24:01 11:28:53 65° 103° (ESE) 11:33:28 145.822/145.860
NANOSAT C BR1 29 May 11:26:35 11:30:51 65° 68° (ENE) 11:35:08 145.865
UNISAT 6 29 May 11:27:56 11:32:36 75° 255° (WSW) 11:37:12 437.425
BRITE-PL 29 May 11:30:36 11:36:06 49° 299° (WNW) 11:41:26 437.365/2234.400
SO-50 29 May 11:30:44 11:35:35 53° 222° (SW) 11:40:24 436.795
CANX-2 29 May 11:31:27 11:35:40 66° 292° (WNW) 11:39:51 2200.000
YUBILEINY 29 May 11:33:14 11:41:02 34° 315° (NW) 11:48:44 435.215
CUTE 1.7 + AOD 2 29 May 11:34:33 11:38:46 67° 292° (WNW) 11:42:57 437.475
QB50P2 29 May 11:36:40 11:40:59 78° 70° (ENE) 11:45:20 145.880/145.840
50 SAT 29 May 11:36:55 11:38:42 13° 83° (E) 11:40:37 437.505
UKube-1 29 May 11:42:50 11:46:13 22° 89° (E) 11:49:39 .
ZACube-1 29 May 11:46:32 11:50:44 42° 97° (E) 11:54:49 437.345
DUCHIFAT 1 29 May 11:47:50 11:52:09 90° 312° (NW) 11:56:29 145.980
POPSAT HIP 1 29 May 11:48:14 11:52:34 88° 252° (WSW) 11:56:56 437.405
Oscar 11 29 May 11:52:36 11:56:56 67° 105° (ESE) 12:01:13 145.826/435.025
SEEDS 29 May 11:52:50 11:56:58 56° 293° (WNW) 12:01:03 437.485
DX 1 29 May 11:55:31 11:59:21 28° 93° (E) 12:03:11 434.975-435.025
CUBEBUG 2 29 May 11:57:04 12:01:38 69° 103° (ESE) 12:06:00 437.445
Gurwin Techsat 1B 29 May 11:57:35 11:59:50 13° 28° (NNE) 12:02:10 435.225
BUGSAT 1 29 May 11:58:18 12:02:32 85° 71° (ENE) 12:06:51 437.445
CUTE-I 29 May 12:01:04 12:03:54 14° 330° (NNW) 12:06:40 437.470
COMPASS 1 29 May 12:01:34 12:05:39 55° 294° (WNW) 12:09:42 437.405
RS-15 29 May 12:03:59 12:14:59 82° 143° (SE) 12:26:30 29.354- 29.394
DOVE 4 29 May 12:06:36 12:11:39 47° 299° (WNW) 12:16:25 437.250
GONETS M04 29 May 12:10:48 12:16:30 20° 66° (ENE) 12:22:30
CUBEBUG 1 29 May 12:11:08 12:13:52 16° 83° (E) 12:16:44 437.445
AAUSAT CUBESAT 2 29 May 12:11:18 12:15:21 52° 295° (WNW) 12:19:23 437.432
ANTELSAT 29 May 12:11:57 12:16:19 37° 264° (W) 12:20:35 437.575/2403.000
DELFI C3 29 May 12:19:36 12:23:40 88° 105° (ESE) 12:27:42 145.870
Oscar 19 29 May 12:19:40 12:23:51 26° 48° (NE) 12:28:05 437.125/150
VELOX 1 29 May 12:20:29 12:24:22 28° 92° (E) 12:28:15 145.980
Cubesat XI-IV 29 May 12:22:50 12:25:01 12° 335° (NNW) 12:27:07 437.490
QB50P1 29 May 12:32:24 12:36:30 42° 262° (W) 12:40:38 145.935-145.965
ESTCUBE 1 29 May 12:34:23 12:38:10 26° 90° (E) 12:42:00 437.505/2401.250
POLYITAN 1 29 May 12:36:03 12:40:08 39° 263° (W) 12:44:14 437.675
UWE-3 29 May 12:38:35 12:43:04 71° 291° (WNW) 12:47:23 435.000/436.395/437.385
SPROUT 29 May 12:40:21 12:41:20 11° 78° (ENE) 12:42:30 437.525
FUNcube-1 29 May 12:40:58 12:45:23 80° 291° (WNW) 12:49:41 145.935
ITAMSAT 1 29 May 12:41:02 12:44:30 19° 39° (NE) 12:48:03 435.822/435.867
DANDE 29 May 12:44:04 12:50:28 27° 77° (ENE) 12:57:17 436.750
TIGRISAT 29 May 12:44:20 12:48:07 24° 271° (W) 12:51:49 435.000
HO-68 29 May 12:51:27 12:58:16 48° 309° (NW) 13:05:02 435.675
Cosmos 2504 29 May 12:52:21 13:00:07 52° 298° (WNW) 13:07:23 435.465 / 435.565
AISAT 29 May 12:52:59 12:57:23 48° 100° (E) 13:01:45 437.250
TISAT 1 29 May 12:53:04 12:53:31 10° 78° (ENE) 12:54:10 437.305
HUMSAT D 29 May 12:53:35 12:57:49 77° 105° (ESE) 13:01:58 437.325/437.525
CUSAT 1 29 May 12:55:22 13:02:21 34° 84° (E) 13:09:32 437.405
GOMX 1 29 May 12:57:37 13:01:53 23° 314° (NW) 13:05:57 467.674
CINEMA 3 29 May 13:01:29 13:05:49 32° 304° (NW) 13:09:56 145.822/145.860
NANOSAT C BR1 29 May 13:03:25 13:07:05 26° 269° (W) 13:10:42 145.865
UNISAT 6 29 May 13:07:07 13:10:12 17° 276° (W) 13:13:08 437.425
CANX-2 29 May 13:08:09 13:10:57 17° 313° (NW) 13:13:40 2200.000
BRITE-PL 29 May 13:09:40 13:13:32 19° 321° (NW) 13:17:15 437.365/2234.400
50 SAT 29 May 13:10:18 13:14:14 70° 104° (ESE) 13:18:05 437.505
CUTE 1.7 + AOD 2 29 May 13:11:14 13:14:04 17° 312° (NW) 13:16:48 437.475
SO-50 29 May 13:12:09 13:15:17 17° 243° (WSW) 13:18:17 436.795
AO-7 29 May 13:12:25 13:19:10 29° 22° (NNE) 13:26:00 29.400- 29.500
QB50P2 29 May 13:14:02 13:17:25 22° 272° (W) 13:20:46 145.880/145.840
UKube-1 29 May 13:18:30 13:22:54 79° 291° (WNW) 13:27:15 .
JAS-2 29 May 13:19:19 13:22:06 14° 30° (NNE) 13:24:52 435.910
ZACube-1 29 May 13:22:59 13:27:09 41° 299° (WNW) 13:31:10 437.345
DUCHIFAT 1 29 May 13:25:30 13:28:36 19° 274° (W) 13:31:39 145.980
POPSAT HIP 1 29 May 13:26:01 13:29:06 19° 274° (W) 13:32:08 437.405
